Regional Weather Roundup
Issued by NWS Bismarck, ND

Home | Current Version | Previous Version | Text Only | Print | Product List | Glossary Off
Versions: 1 2 3 4 5 6 7 8 9 10 11 12 13 14 15 16 17 18 19 20 21 22 23 24 25 26 27 28 29 30 31 32 33 34 35 36 37 38 39 40 41 42 43 44 45 46 47 48 49 50

000
ASUS43 KBIS 201510
RWRBIS

NWR BROADCAST TEXT
NATIONAL WEATHER SERVICE BISMARCK ND
1000 AM CDT SUN MAY 20 2018

NOTE: "FAIR" INDICATES FEW OR NO CLOUDS BELOW 12,000 FEET WITH NO
SIGNIFICANT WEATHER AND/OR OBSTRUCTIONS TO VISIBILITY.


CITY           SKY/WX    TMP DP  RH WIND       PRES   REMARKS
WILLISTON      SUNNY     59  38  45 SE8       30.22F
MINOT          SUNNY     64  31  28 S7        30.24F
MINOT AFB      SUNNY     63  30  29 CALM      30.23F
BISMARCK       SUNNY     55  41  59 CALM      30.29R
DICKINSON      SUNNY     58  35  42 S13       30.25R
GARRISON         N/A     58  37  45 S6        30.26S
HETTINGER ARPT SUNNY     54  37  52 SE12      30.28R
JAMESTOWN      SUNNY     60  37  42 S6        30.28R
CARRINGTON     FAIR      61  37  41 CALM      30.30R
HAZEN          FAIR      57  41  54 CALM      30.29S
LINTON           N/A    N/A N/A N/A S5        30.31S
MANDAN         FAIR      55  41  58 S5        30.30R
OAKES            N/A     57  36  44 VRB6      30.29S
STANLEY          N/A     59  34  38 SW6       30.27S HAZE
TIOGA          FAIR      59  32  36 S12       30.25S
WATFORD CITY   FAIR      61  34  36 S10       30.23S
$$

CITY           SKY/WX    TMP DP  RH WIND       PRES   REMARKS
GRAND FORKS    FAIR      61  45  55 S8        30.26R
GRAND FORKS AF FAIR      66  42  42 SW3       30.25S
DEVILS LAKE    FAIR      60  40  47 SW14      30.27R
FARGO          FAIR      59  38  45 S6        30.29R
CANDO          FAIR      63  41  45 W6        30.26S
CAVALIER         N/A     64  37  36 W3        30.21S
GRAFTON        FAIR      64  43  45 W12       30.25S
GWINNER          N/A     59  34  38 SE7       30.29S
LANGDON        FAIR      61  43  51 W8        30.24S
ROLLA          FAIR      66  32  28 VRB5      30.23F
WALHALLA       FAIR      66  39  37 W8        30.21S
$$

CITY           SKY/WX    TMP DP  RH WIND       PRES   REMARKS
ABERDEEN       MOSUNNY   59  35  40 MISG      30.28R
MOBRIDGE       SUNNY     56  39  53 CALM      30.27R
BUFFALO          N/A     56  37  49 SE20      30.18S
RAPID CITY     MOSUNNY   50  38  63 VRB5      30.27S
GLASGOW        SUNNY     58  40  51 SE22      30.12F
SIDNEY         SUNNY     58  42  55 S8        30.22F
WOLF POINT     SUNNY     60  40  47 S10       30.17F
GLENDIVE       SUNNY     58  38  47 S20       30.20S
MILES CITY     SUNNY     56  41  57 SE18G26   30.15S
BAKER          SUNNY     55  38  52 SE22G28   30.23R
$$

CITY           SKY/WX    TMP DP  RH WIND       PRES   REMARKS
BILLINGS       SUNNY     51  42  71 CALM      30.10R
GREAT FALLS    MOSUNNY   58  43  57 S10       30.01S
REGINA         SUNNY     61  30  31 SE13      30.20S
ESTEVAN        SUNNY     63  30  29 S6        30.23S
$$





USA.gov is the U.S. government's official web portal to all federal, state and local government web resources and services.